Change the Weather History Date:

Saturday, October 19, 2013

  Actual Average Record
Temperature  
Mean Temperature 48 °F 40 °F  
Max Temperature 52 °F 46 °F 55 °F (1991)
Min Temperature 43 °F 34 °F 22 °F (1974)
Degree Days  
Heating Degree Days 17 25  
Month to date heating degree days 355 436  
Since 1 July heating degree days 1274 1534  
Cooling Degree Days 0    
Month to date cooling degree days 0  
Year to date cooling degree days 6  
Moisture  
Dew Point 39 °F    
Average Humidity 0    
Maximum Humidity 0    
Minimum Humidity 0    
Precipitation  
Precipitation 0.07 in 0.27 in 1.14 in (1977)
Month to date precipitation 5.02 5.20  
Year to date precipitation 52.47 59.34  
Snow  
Snow 0.00 in 0.10 in 1.90 in (1996)
Month to date snowfall 0.0 0.4  
Since 1 July snowfall 0.0 0.4  
Since 1 September snowfall 0.0 0.4  
Snow Depth 0.00 in    
Sea Level Pressure  
Sea Level Pressure 29.49 in    
Wind  
Wind Speed 8 mph (South)    
Max Wind Speed 23 mph    
Max Gust Speed 30 mph    
Visibility 10 miles    
Events Rain    
T = Trace of Precipitation, MM = Missing Value Source: NWS Daily Summary

Daily Weather History Graph

Daily Weather History Graph

Search for Another Location

Airport or City:

Trip Planner

Search our weather history database for the weather conditions in past years. The results will help you decide how hot, cold, wet, or windy it might be!

Date:

Astronomy

Oct. 19, 2013 Rise Set
Actual Time 8:54 AM AKDT 6:53 PM AKDT
Civil Twilight 8:14 AM AKDT 7:33 PM AKDT
Nautical Twilight 7:29 AM AKDT 8:19 PM AKDT
Astronomical Twilight 6:44 AM AKDT 9:04 PM AKDT
Moon 7:10 PM AKDT (10/19) 9:57 AM AKDT (10/19)
Length of Visible Light 11h 19m
Length of Day
9h 59m
Full, 99% of the Moon is Illuminated
Oct 19
Full
Oct 26
Last Quarter
Nov 3
New
Nov 9
First Quarter
Nov 17
Full

Hourly Weather History & Observations

Time (AKDT) Temp. Windchill Dew Point Humidity Pressure Visibility Wind Dir Wind Speed Gust Speed Precip Events Conditions
12:53 AM 48.9 °F - 46.0 °F 90% 29.39 in 10.0 mi SE 6.9 mph - 0.01 in   Overcast
1:53 AM 48.0 °F - 41.0 °F 77% 29.39 in 10.0 mi SSW 8.1 mph - N/A   Overcast
2:40 AM 46.4 °F 40.1 °F 37.4 °F 71% 29.40 in 10.0 mi South 15.0 mph - N/A   Scattered Clouds
2:53 AM 46.0 °F 40.6 °F 36.0 °F 68% 29.41 in 10.0 mi SSW 11.5 mph - N/A   Scattered Clouds
3:53 AM 45.0 °F - 37.0 °F 74% 29.41 in 10.0 mi Calm Calm - N/A   Mostly Cloudy
4:53 AM 45.0 °F 43.5 °F 39.9 °F 82% 29.40 in 10.0 mi West 3.5 mph - 0.01 in Rain Light Rain
5:38 AM 46.4 °F 45.2 °F 39.2 °F 76% 29.40 in 10.0 mi Variable 3.5 mph - 0.00 in Rain Light Rain
5:53 AM 45.0 °F - 39.0 °F 80% 29.40 in 10.0 mi Calm Calm - 0.00 in Rain Light Rain
6:53 AM 46.0 °F 42.5 °F 39.0 °F 76% 29.41 in 10.0 mi South 6.9 mph - 0.00 in   Mostly Cloudy
7:53 AM 46.9 °F - 37.9 °F 71% 29.41 in 10.0 mi South 8.1 mph 18.4 mph 0.00 in   Mostly Cloudy
8:53 AM 46.0 °F 44.8 °F 39.9 °F 79% 29.43 in 10.0 mi South 3.5 mph - 0.00 in Rain Light Rain
9:01 AM 46.4 °F 45.2 °F 41.0 °F 81% 29.43 in 7.0 mi SSE 3.5 mph - 0.01 in Rain Rain
9:53 AM 45.0 °F 39.3 °F 39.9 °F 82% 29.44 in 10.0 mi South 11.5 mph - 0.04 in Rain Light Rain
10:53 AM 46.0 °F - 39.9 °F 79% 29.47 in 10.0 mi Calm Calm - 0.00 in   Mostly Cloudy
11:53 AM 48.9 °F - 41.0 °F 74% 29.47 in 10.0 mi South 5.8 mph - 0.00 in   Mostly Cloudy
12:39 PM 48.2 °F - 42.8 °F 82% 29.49 in 6.0 mi SSW 10.4 mph - 0.01 in Rain Light Rain
12:53 PM 46.9 °F - 42.1 °F 83% 29.50 in 7.0 mi SSW 6.9 mph - 0.02 in Rain Light Rain
1:53 PM 48.0 °F - 41.0 °F 77% 29.51 in 10.0 mi South 8.1 mph - 0.00 in   Mostly Cloudy
2:53 PM 52.0 °F - 41.0 °F 66% 29.51 in 10.0 mi South 13.8 mph 24.2 mph 0.00 in   Mostly Cloudy
3:53 PM 51.1 °F - 39.9 °F 66% 29.52 in 10.0 mi South 12.7 mph 19.6 mph N/A   Mostly Cloudy
4:53 PM 48.9 °F - 39.9 °F 71% 29.54 in 10.0 mi South 13.8 mph - 0.00 in   Mostly Cloudy
5:53 PM 48.9 °F - 39.0 °F 69% 29.57 in 10.0 mi South 8.1 mph - N/A   Mostly Cloudy
6:53 PM 48.0 °F - 37.9 °F 68% 29.58 in 10.0 mi South 8.1 mph 17.3 mph N/A   Scattered Clouds
7:53 PM 48.0 °F - 37.0 °F 66% 29.61 in 10.0 mi South 15.0 mph 27.6 mph N/A   Scattered Clouds
8:53 PM 46.9 °F - 36.0 °F 66% 29.64 in 10.0 mi South 13.8 mph - N/A   Scattered Clouds
9:53 PM 46.0 °F 38.0 °F 37.0 °F 71% 29.66 in 10.0 mi South 21.9 mph 29.9 mph 0.00 in Rain Light Rain
10:53 PM 44.1 °F 42.5 °F 36.0 °F 73% 29.70 in 10.0 mi Variable 3.5 mph - 0.00 in   Scattered Clouds
11:53 PM 45.0 °F 40.6 °F 36.0 °F 71% 29.71 in 10.0 mi South 8.1 mph - N/A   Scattered Clouds